This is the latest recevied weather packets stored in our database for station/object K2BIG. If no packets are shown the sender has not sent any weather packets the latest 10 day(s).
| Time | Temp. | Humidity | Pressure | Rain* | Wind** | Luminosity | Snow |
|---|---|---|---|---|---|---|---|
| 1777998016 | 27.22° C | 46% | 1008.6 hPa | 0 mm | - | - | - |
| 1777997716 | 26.67° C | 49% | 1008.7 hPa | 0 mm | - | - | - |
| 1777997416 | 26.67° C | 48% | 1008.9 hPa | 0 mm | - | - | - |
| 1777997116 | 26.67° C | 52% | 1009 hPa | 0 mm | - | - | - |
| 1777996816 | 26.67° C | 50% | 1009 hPa | 0 mm | - | - | - |
| 1777996516 | 26.67° C | 49% | 1009 hPa | 0 mm | - | - | - |
| 1777996216 | 26.11° C | 52% | 1009 hPa | 0 mm | - | - | - |
| 1777995916 | 25.56° C | 53% | 1009.1 hPa | 0 mm | - | - | - |
| 1777995616 | 25.56° C | 49% | 1009.3 hPa | 0 mm | - | - | - |
| 1777995316 | 26.11° C | 48% | 1009.3 hPa | 0 mm | - | - | - |
| 1777995016 | 26.11° C | 50% | 1009.3 hPa | 0 mm | - | - | - |
| 1777994716 | 26.11° C | 49% | 1009.4 hPa | 0 mm | - | - | - |
| 1777994416 | 26.11° C | 52% | 1009.3 hPa | 0 mm | - | - | - |
| 1777994116 | 26.11° C | 51% | 1009.4 hPa | 0 mm | - | - | - |
| 1777993816 | 25.56° C | 52% | 1009.3 hPa | 0 mm | - | - | - |
| 1777993516 | 26.11° C | 53% | 1009.4 hPa | 0 mm | - | - | - |
| 1777993216 | 25.56° C | 52% | 1009.4 hPa | 0 mm | - | - | - |
| 1777992916 | 25.56° C | 52% | 1009.4 hPa | 0 mm | - | - | - |
| 1777992616 | 25.56° C | 52% | 1009.5 hPa | 0 mm | - | - | - |
| 1777992316 | 25° C | 55% | 1009.5 hPa | 0 mm | - | - | - |
| 1777992016 | 25° C | 53% | 1009.5 hPa | 0 mm | - | - | - |
| 1777991716 | 25° C | 54% | 1009.7 hPa | 0 mm | - | - | - |
| 1777991416 | 25° C | 55% | 1009.7 hPa | 0 mm | - | - | - |
| 1777991116 | 24.44° C | 55% | 1009.7 hPa | 0 mm | - | - | - |
| 1777990816 | 23.89° C | 58% | 1009.7 hPa | 0 mm | - | - | - |
* Rain latest hour (hover to see other rain measurements)
** Current wind speed in m/s (hover to see current wind gust speed)